sat.trackr.live / text

‹ back to catalog

KOWSAR 1.5

NORAD 67264 · 2025-313S

PAYLOAD ACTIVE UNKNOWN

§ Identity

Operator
Country
IRAN
Launch date
2025-12-28
Launch site
VOSTO
Launch vehicle
Mass (kg)
RCS (m²)

External: N2YO · Heavens-Above · Gunter

§ Orbital elements

Epoch: 2026-05-24T18:41:55.106592Z

Period
94.61 min
Inclination
97.4026°
Eccentricity
0.0016608
Mean motion
15.22002020 rev/d
Perigee alt
488.4 km
Apogee alt
511.2 km
Semi-major
6,877.9 km
B*
2.3246e-4
RAAN
219.8613°
Arg perigee
92.7925°
Mean anomaly
267.5212°
Rev number
2,238

§ Raw data

KOWSAR 1.51 67264U 25313S   26144.77911003  .00005257  00000+0  23246-3 0  99922 67264  97.4026 219.8613 0016608  92.7925 267.5212 15.22002020 22384

JSON: /api/v1/satellites/67264 · /tle

For live sub-satellite position, see the globe view (requires WebGL).

§ Visibility from observer

Set your observer location to see the next 7 days of passes ≥ 10°. The values pass through the URL so the page stays shareable.

No JS? Fill the form by hand. The geolocation button needs JavaScript.

§ Radio — SatNOGS DB

ModeDescriptionDownlinkUplink
LoRa LoRa (SF 10, BW 125) 863.400 MHz
LoRa LoRa (SF 8, BW 125) 436.100 MHz

2 transmitters · refreshed weekly from db.satnogs.org